Location: Unspecified
(0.0000°N, 0.0000°E)
Time: 04:22:42
(UTC+00:00)

Envisat - Pass Details

Date: 19 December 2018
Orbit: 764 x 766 km, 98.1° (Epoch: 13 October)

Event Time Altitude Azimuth Distance (km) Brightness Sun altitude
Rises 19:14:16 0° 167° (SSE) 3,229 6.4 -17.6°
Reaches altitude 10° 19:16:34 10° 166° (SSE) 2,301 5.6 -18.1°
Maximum altitude 19:21:39 85° 78° (ENE) 771 2.9 -19.3°
Drops below altitude 10° 19:26:42 10° 350° (N) 2,292 5.3 -20.4°
Sets 19:29:00 0° 349° (N) 3,216 6.1 -21.0°
